When you browse on this site, cookies collect data to enhance your experience and personalize the content and advertising you see.
Visit our Privacy Policy to learn more. By continuing to use the site, you agree to this use of cookies and data.
  • In Deutschland
  • Länderverzeichnis
  • Für 7 Tage
  • Wassertemperatur
  • Satellitenkarten
  • Wetterkarte
  • Widgets
  • user-avatar
    Anmelden

    Stündliche Wetter Mykhalje

    Heute, 18 Februar, Montag

    Zeit Temperatur Niederschläge Wind Luftdruck Luftfeuchtigkeit
    00:00 +5°C° 0 mm 2 m/S 749 mmHg 88%
    01:00 +5°C° 0 mm 2 m/S 749 mmHg 88%
    02:00 +5°C° 0 mm 1 m/S 749 mmHg 86%
    03:00 +5°C° 0 mm 1 m/S 749 mmHg 86%
    04:00 +5°C° 0 mm 1 m/S 749 mmHg 85%
    05:00 +5°C° 0 mm 1 m/S 749 mmHg 85%
    06:00 +5°C° 0 mm 1 m/S 749 mmHg 85%
    07:00 +5°C° 0 mm 1 m/S 749 mmHg 86%
    08:00 +5°C° 0 mm 1 m/S 749 mmHg 88%
    09:00 +5°C° 0 mm 1 m/S 749 mmHg 86%
    10:00 +6°C° 0 mm 1 m/S 749 mmHg 85%
    11:00 +6°C° 0 mm 1 m/S 749 mmHg 84%
    12:00 +7°C° 0 mm 1 m/S 749 mmHg 79%
    13:00 +8°C° 0 mm 1 m/S 749 mmHg 75%
    14:00 +9°C° 0 mm 1 m/S 749 mmHg 70%
    15:00 +9°C° 0 mm 1 m/S 749 mmHg 72%
    16:00 +8°C° 0 mm 1 m/S 748 mmHg 74%
    17:00 +8°C° 0 mm 1 m/S 748 mmHg 75%
    18:00 +7°C° 0 mm 2 m/S 748 mmHg 78%
    19:00 +6°C° 0 mm 2 m/S 748 mmHg 80%
    20:00 +6°C° 0 mm 2 m/S 748 mmHg 83%
    21:00 +4°C° 0 mm 3 m/S 748 mmHg 84%
    22:00 +4°C° 0 mm 3 m/S 748 mmHg 86%
    23:00 +3°C° 0 mm 3 m/S 748 mmHg 88%

    Morgen, 19 Februar, Dienstag

    Zeit Temperatur Niederschläge Wind Luftdruck Luftfeuchtigkeit
    00:00 +2°C° 0 mm 3 m/S 747 mmHg 90%
    01:00 +2°C° 0 mm 3 m/S 747 mmHg 91%
    02:00 +2°C° 0 mm 3 m/S 747 mmHg 92%
    03:00 +1°C° 0 mm 3 m/S 747 mmHg 93%
    04:00 +1°C° 0 mm 3 m/S 746 mmHg 93%
    05:00 +1°C° 0 mm 3 m/S 746 mmHg 94%
    06:00 0°C° 0 mm 3 m/S 746 mmHg 93%
    07:00 0°C° 0 mm 3 m/S 745 mmHg 93%
    08:00 0°C° 0 mm 3 m/S 745 mmHg 93%
    09:00 +2°C° 0 mm 3 m/S 745 mmHg 85%
    10:00 +3°C° 0 mm 3 m/S 745 mmHg 77%
    11:00 +5°C° 0 mm 4 m/S 745 mmHg 70%
    12:00 +6°C° 0 mm 4 m/S 745 mmHg 66%
    13:00 +7°C° 0 mm 4 m/S 744 mmHg 62%
    14:00 +8°C° 0 mm 4 m/S 744 mmHg 59%
    15:00 +8°C° 0 mm 4 m/S 743 mmHg 61%
    16:00 +8°C° 0 mm 3 m/S 743 mmHg 63%
    17:00 +8°C° 0 mm 3 m/S 742 mmHg 66%
    18:00 +7°C° 0 mm 3 m/S 742 mmHg 70%
    19:00 +5°C° 0 mm 3 m/S 742 mmHg 74%
    20:00 +4°C° 0 mm 3 m/S 742 mmHg 78%
    21:00 +4°C° 0 mm 4 m/S 742 mmHg 80%
    22:00 +3°C° 0 mm 4 m/S 742 mmHg 82%
    23:00 +2°C° 0 mm 5 m/S 742 mmHg 84%

    übermorgen, 20 Februar, Mittwoch

    Zeit Temperatur Niederschläge Wind Luftdruck Luftfeuchtigkeit
    00:00 +3°C° 0 mm 4 m/S 742 mmHg 85%
    01:00 +1°C° 0 mm 4 m/S 742 mmHg 86%
    02:00 +1°C° 0 mm 4 m/S 742 mmHg 87%
    03:00 +1°C° 0.2 mm 5 m/S 742 mmHg 87%
    04:00 +2°C° 0.2 mm 5 m/S 742 mmHg 88%
    05:00 +2°C° 0.2 mm 5 m/S 742 mmHg 88%
    06:00 +2°C° 0.3 mm 5 m/S 742 mmHg 90%
    07:00 +1°C° 0.3 mm 5 m/S 742 mmHg 91%
    08:00 +1°C° 0.3 mm 4 m/S 742 mmHg 92%
    09:00 +2°C° 0 mm 5 m/S 743 mmHg 88%
    10:00 +3°C° 0 mm 6 m/S 743 mmHg 84%
    11:00 +3°C° 0 mm 7 m/S 743 mmHg 80%
    12:00 +4°C° 0.1 mm 7 m/S 744 mmHg 75%
    13:00 +4°C° 0.1 mm 7 m/S 744 mmHg 70%
    14:00 +4°C° 0.1 mm 7 m/S 744 mmHg 65%
    15:00 +4°C° 0.1 mm 7 m/S 744 mmHg 65%
    16:00 +3°C° 0.1 mm 6 m/S 744 mmHg 66%
    17:00 +3°C° 0.1 mm 6 m/S 744 mmHg 66%
    18:00 +3°C° 0 mm 5 m/S 745 mmHg 69%
    19:00 +2°C° 0 mm 5 m/S 745 mmHg 73%
    20:00 +2°C° 0 mm 5 m/S 746 mmHg 76%
    21:00 +2°C° 0 mm 5 m/S 746 mmHg 77%
    22:00 +2°C° 0 mm 5 m/S 746 mmHg 78%
    23:00 +2°C° 0 mm 5 m/S 746 mmHg 79%

    21 Februar, Donnerstag

    Zeit Temperatur Niederschläge Wind Luftdruck Luftfeuchtigkeit
    00:00 +2°C° 0 mm 5 m/S 746 mmHg 78%
    01:00 +2°C° 0 mm 5 m/S 746 mmHg 78%
    02:00 +2°C° 0 mm 5 m/S 746 mmHg 77%
    03:00 +2°C° 0 mm 5 m/S 746 mmHg 78%
    04:00 +2°C° 0 mm 5 m/S 746 mmHg 78%
    05:00 +2°C° 0 mm 5 m/S 746 mmHg 78%
    06:00 +2°C° 0 mm 5 m/S 746 mmHg 80%
    07:00 +2°C° 0 mm 5 m/S 746 mmHg 83%
    08:00 +2°C° 0 mm 5 m/S 746 mmHg 85%
    09:00 +2°C° 0.1 mm 5 m/S 746 mmHg 83%
    10:00 +3°C° 0.1 mm 6 m/S 746 mmHg 82%
    11:00 +3°C° 0.1 mm 6 m/S 746 mmHg 80%
    12:00 +4°C° 0.2 mm 6 m/S 746 mmHg 79%
    13:00 +4°C° 0.2 mm 6 m/S 745 mmHg 78%
    14:00 +4°C° 0.2 mm 6 m/S 745 mmHg 77%
    15:00 +4°C° 0.2 mm 6 m/S 745 mmHg 80%
    16:00 +3°C° 0.2 mm 6 m/S 745 mmHg 82%
    17:00 +3°C° 0.2 mm 6 m/S 745 mmHg 84%
    18:00 +3°C° 0.3 mm 6 m/S 745 mmHg 86%
    19:00 +3°C° 0.3 mm 5 m/S 745 mmHg 88%
    20:00 +3°C° 0.3 mm 5 m/S 745 mmHg 90%
    21:00 +3°C° 0.1 mm 5 m/S 745 mmHg 91%
    22:00 +3°C° 0.1 mm 5 m/S 745 mmHg 92%
    23:00 +5°C° 0.1 mm 5 m/S 745 mmHg 92%

    22 Februar, Freitag

    Zeit Temperatur Niederschläge Wind Luftdruck Luftfeuchtigkeit
    00:00 +3°C° 0.3 mm 5 m/S 746 mmHg 93%
    01:00 +4°C° 0.3 mm 4 m/S 746 mmHg 93%
    02:00 +4°C° 0.3 mm 4 m/S 746 mmHg 94%
    03:00 +3°C° 0.7 mm 5 m/S 746 mmHg 92%
    04:00 +2°C° 0.7 mm 6 m/S 746 mmHg 91%
    05:00 +1°C° 0.7 mm 6 m/S 747 mmHg 89%
    06:00 -1°C° 0 mm 6 m/S 748 mmHg 86%
    07:00 -2°C° 0 mm 6 m/S 749 mmHg 83%
    08:00 -3°C° 0 mm 6 m/S 750 mmHg 80%
    09:00 -3°C° 0 mm 6 m/S 751 mmHg 75%
    10:00 -4°C° 0 mm 6 m/S 753 mmHg 70%
    11:00 -4°C° 0 mm 6 m/S 754 mmHg 65%
    12:00 -3°C° 0 mm 6 m/S 755 mmHg 61%
    13:00 -3°C° 0 mm 6 m/S 756 mmHg 58%
    14:00 -3°C° 0 mm 6 m/S 757 mmHg 54%
    15:00 -2°C° 0 mm 5 m/S 757 mmHg 53%
    16:00 -2°C° 0 mm 5 m/S 758 mmHg 51%
    17:00 -2°C° 0 mm 5 m/S 758 mmHg 50%
    18:00 -3°C° 0 mm 4 m/S 759 mmHg 52%
    19:00 -4°C° 0 mm 4 m/S 760 mmHg 54%
    20:00 -4°C° 0 mm 3 m/S 761 mmHg 56%
    21:00 -4°C° 0 mm 3 m/S 761 mmHg 56%
    22:00 -3°C° 0 mm 2 m/S 761 mmHg 55%
    23:00 -3°C° 0 mm 2 m/S 762 mmHg 55%

    23 Februar, Samstag

    Zeit Temperatur Niederschläge Wind Luftdruck Luftfeuchtigkeit
    00:00 -1°C° 0 mm 1 m/S 762 mmHg 54%
    01:00 -1°C° 0 mm 1 m/S 762 mmHg 54%
    02:00 -2°C° 0 mm 0 m/S 762 mmHg 53%
    03:00 -1°C° 0 mm 1 m/S 762 mmHg 53%
    04:00 -1°C° 0 mm 1 m/S 761 mmHg 52%
    05:00 -3°C° 0 mm 2 m/S 761 mmHg 52%
    06:00 -3°C° 0 mm 2 m/S 761 mmHg 50%
    07:00 -4°C° 0 mm 3 m/S 760 mmHg 48%
    08:00 -4°C° 0 mm 3 m/S 760 mmHg 47%
    09:00 -3°C° 0 mm 4 m/S 760 mmHg 43%
    10:00 -3°C° 0 mm 4 m/S 759 mmHg 40%
    11:00 -2°C° 0 mm 4 m/S 759 mmHg 37%
    12:00 -2°C° 0 mm 4 m/S 758 mmHg 37%
    13:00 -1°C° 0 mm 5 m/S 757 mmHg 38%
    14:00 -1°C° 0 mm 5 m/S 756 mmHg 38%
    15:00 -1°C° 0 mm 5 m/S 755 mmHg 42%
    16:00 -1°C° 0 mm 5 m/S 755 mmHg 45%
    17:00 -1°C° 0 mm 5 m/S 754 mmHg 49%
    18:00 -1°C° 0 mm 5 m/S 753 mmHg 59%
    19:00 0°C° 0 mm 5 m/S 753 mmHg 69%
    20:00 0°C° 0 mm 5 m/S 752 mmHg 79%
    21:00 0°C° 0 mm 5 m/S 752 mmHg 84%
    22:00 +1°C° 0 mm 5 m/S 752 mmHg 90%
    23:00 +1°C° 0 mm 4 m/S 752 mmHg 95%
    Mehr zeigen